Moab, UT

10:37 PM MDT on October 22, 2019 (GMT -0600)
Canyonlands

Weather History for KCNY - August, 2019

Change the Weather History Date:

Saturday, August 10, 2019

  Actual Average Record
Temperature  
Mean Temperature 80 °F 79 °F  
Max Temperature 94 °F 94 °F 105 °F (1980)
Min Temperature 65 °F 64 °F 50 °F (1928)
Degree Days  
Heating Degree Days 0 0  
Month to date heating degree days 0 0  
Since 1 June heating degree days 23 17  
Since 1 July heating degree days 0 0  
Cooling Degree Days 15 14  
Month to date cooling degree days 172 146  
Year to date cooling degree days 945 939  
Since 1 June cooling degree days 930 875  
Growing Degree Days 28 (Base 50)    
Moisture  
Dew Point 43 °F    
Average Humidity 30    
Maximum Humidity 44    
Minimum Humidity 15    
Precipitation  
Precipitation 0.00 in 0.02 in 0.53 in (2005)
Month to date precipitation 0.02 0.27  
Year to date precipitation 6.17 4.81  
Sea Level Pressure  
Sea Level Pressure 29.80 in    
Wind  
Wind Speed 7 mph (South)    
Max Wind Speed 21 mph    
Max Gust Speed 27 mph    
Visibility 10 miles    
Events      
T = Trace of Precipitation, MM = Missing Value Source: NWS Daily Summary

Daily Weather History Graph

Daily Weather History Graph

Search for Another Location

Airport or City:

Astronomy

Aug. 10, 2019 Rise Set
Actual Time 6:28 AM MDT 8:19 PM MDT
Civil Twilight 5:59 AM MDT 8:48 PM MDT
Nautical Twilight 5:24 AM MDT 9:23 PM MDT
Astronomical Twilight 4:46 AM MDT 10:00 PM MDT
Moon 5:04 PM MDT (8/10) 2:08 AM MDT (8/10)
Length of Visible Light 14h 49m
Length of Day
13h 51m
Waxing Gibbous, 80% of the Moon is Illuminated
Aug 10
Waxing Gibbous
Aug 15
Full
Aug 23
Last Quarter
Aug 30
New
Sep 5
First Quarter

Hourly Weather History & Observations

Time (MDT) Temp. Dew Point Humidity Pressure Visibility Wind Dir Wind Speed Gust Speed Precip Events Conditions
12:53 AM 77.0 °F 46.0 °F 33% 29.82 in 10.0 mi SE 5.8 mph - N/A   Mostly Cloudy
1:53 AM 75.0 °F 45.0 °F 34% 29.82 in 10.0 mi ESE 8.1 mph - N/A   Mostly Cloudy
2:53 AM 73.9 °F 44.1 °F 34% 29.82 in 10.0 mi East 5.8 mph - N/A   Clear
3:53 AM 72.0 °F 44.1 °F 37% 29.83 in 10.0 mi East 3.5 mph - N/A   Clear
4:53 AM 66.9 °F 42.1 °F 40% 29.83 in 10.0 mi Calm Calm - N/A   Clear
5:53 AM 66.9 °F 43.0 °F 42% 29.85 in 10.0 mi Calm Calm - N/A   Clear
6:53 AM 64.9 °F 42.1 °F 43% 29.87 in 10.0 mi Calm Calm - N/A   Clear
7:53 AM 72.0 °F 44.1 °F 37% 29.88 in 10.0 mi East 3.5 mph - N/A   Clear
8:53 AM 78.1 °F 45.0 °F 31% 29.88 in 10.0 mi SE 5.8 mph - N/A   Clear
9:53 AM 82.0 °F 46.0 °F 28% 29.87 in 10.0 mi SE 9.2 mph - N/A   Clear
10:53 AM 84.0 °F 46.0 °F 26% 29.86 in 10.0 mi Variable 6.9 mph - N/A   Clear
11:53 AM 87.1 °F 46.0 °F 24% 29.84 in 10.0 mi SE 6.9 mph - N/A   Clear
12:53 PM 89.1 °F 46.0 °F 22% 29.82 in 10.0 mi North - - N/A   Clear
1:53 PM 90.0 °F 45.0 °F 21% 29.79 in 10.0 mi Calm Calm - N/A   Scattered Clouds
2:53 PM 91.0 °F 42.1 °F 18% 29.77 in 10.0 mi SSW 13.8 mph 20.7 mph N/A   Clear
3:53 PM 91.9 °F 43.0 °F 18% 29.75 in 10.0 mi SW 5.8 mph 17.3 mph N/A   Clear
4:53 PM 93.0 °F 39.9 °F 16% 29.73 in 10.0 mi SW 13.8 mph 23.0 mph N/A   Clear
5:53 PM 91.9 °F 39.9 °F 16% 29.72 in 10.0 mi WSW 13.8 mph 23.0 mph N/A   Clear
6:53 PM 91.0 °F 42.1 °F 18% 29.72 in 10.0 mi SW 13.8 mph - N/A   Clear
7:53 PM 88.0 °F 39.0 °F 18% 29.73 in 10.0 mi WSW 12.7 mph - N/A   Clear
8:53 PM 86.0 °F 39.9 °F 20% 29.73 in 10.0 mi SW 12.7 mph - N/A   Partly Cloudy
9:53 PM 79.0 °F 39.0 °F 24% 29.75 in 10.0 mi SW 6.9 mph - N/A   Partly Cloudy
10:53 PM 77.0 °F 39.9 °F 26% 29.75 in 10.0 mi SW 4.6 mph - N/A   Clear
11:53 PM 78.1 °F 39.9 °F 25% 29.75 in 10.0 mi NNW 3.5 mph - N/A   Clear